Tracking 18840 objects as of 18-November-2017
HD Live streaming from Space Station
objects crossing your sky now

FENGYUN 1C DEB

Track FENGYUN 1C DEB now!
10-day predictions


NORAD ID: 31751
Int'l Code: 1999-025CFA
Perigee: 727.3 km
Apogee: 823.2 km
Inclination: 98.9 °
Period: 100.2 minutes
Semi major axis: 7146 km
RCS: 0.0135 m2 (small)
Launch date: May 10, 1999
Source: People's Republic of China (PRC)
Launch site: Taiyaun Space Center, China (TSC)

Note: This is SATELLITE DEBRIS
aabbcc
Your satellite tracking list
Your tracking list is empty




NASA's NSSDC Master Catalog

Two Line Element Set (TLE):
1 31751U 99025CFA 17322.46547321  .00002452  00000-0  81940-3 0  9997
2 31751  98.8689  45.6337 0067105 175.7056 184.4720 14.37103671547482
Source of the keplerian elements: AFSPC